Simultaneous Nadir Overpasses (SNOs) Predictions

Prediction of SNOs between AQUA and METOP-A Satellite Orbit:

Table of predicted SNOs for the next 14.0 days since TLE Epoch: 6/8/2018
Index Date (AQUA) Time (AQUA) Lat,Lon (AQUA) SZA (AQUA ) Date (METOP-A) Time (METOP-A) Lat,Lon (METOP-A) SZA (METOP-A ) Distance(km) Time Diff (sec)
1 06/09/2018 20:52:40 73.89,-138.92 50.91 06/09/2018 20:51:33 73.84,-141.16 50.96 69.52 67
2 06/09/2018 21:42:15 -74.38, 27.58 128.56 06/09/2018 21:42:03 -74.40, 27.55 128.54 2.26 12
3 06/09/2018 22:31:44 74.45,-164.95 51.51 06/09/2018 22:32:42 74.45,-164.98 51.51 0.86 58
4 06/12/2018 16:26:57 74.03, -72.81 50.88 06/12/2018 16:25:48 73.95, -74.48 50.88 52.14 69
5 06/12/2018 17:16:30 -74.42, 93.95 128.72 06/12/2018 17:16:20 -74.42, 94.00 128.71 1.82 10
6 06/12/2018 18:05:58 74.44, -98.49 51.31 06/12/2018 18:06:59 74.47, -98.54 51.33 3.19 61
7 06/15/2018 12:01:12 74.13, -6.59 50.85 06/15/2018 12:00:02 74.07, -7.80 50.84 37.58 70
8 06/15/2018 12:50:43 -74.40, 160.42 128.87 06/15/2018 12:50:37 -74.39, 160.32 128.88 3.21 6
9 06/15/2018 13:40:12 74.49, -32.16 51.23 06/15/2018 13:41:15 74.48, -32.09 51.21 2.12 63
10 06/18/2018 07:35:29 74.29, 59.48 50.93 06/18/2018 07:34:16 74.23, 59.00 50.91 16.15 73
11 06/18/2018 08:24:57 -74.39,-133.12 128.96 06/18/2018 08:24:54 -74.40,-133.23 128.94 3.39 3
12 06/18/2018 09:14:26 74.49, 34.28 51.15 06/18/2018 09:15:32 74.50, 34.34 51.14 1.97 66
13 06/21/2018 03:09:44 74.35, 125.79 50.97 06/21/2018 03:08:31 74.34, 125.68 50.98 3.47 73
14 06/21/2018 03:59:12 -74.44, -66.80 128.93 06/21/2018 03:59:11 -74.41, -66.80 128.96 3.20 1




NCC Satellite Simultaneous Nadir Overpasses (SNOs) Prediction Service
